Location: Moscow
(38.8570°N, 84.2291°W)
Time: 19:25:16
(UTC+00:00)

NANOSAT C BR1 - Pass Details

Date: 15 March 2026
Orbit: 474 x 480 km, 98.1° (Epoch: 21 April)

Event Time Altitude Azimuth Distance (km) Brightness Sun altitude
Rises 00:39:47 0° 187° (S) 2,540 ? -11.8°
Reaches altitude 10° 00:42:00 10° 197° (SSW) 1,664 ? -12.3°
Maximum altitude 00:45:13 31° 262° (W) 864 ? -12.9°
Drops below altitude 10° 00:48:28 10° 326° (NNW) 1,673 ? -13.5°
Sets 00:50:42 0° 337° (NNW) 2,556 ? -13.9°
